EN

Hourly Weather Alkino

Today, 24 January, Sunday

Time Temperature Precipitation Wind Pressure Humidity
00:00 -14°C° 0.1 mm 4 mps 749 mmHg 94%
01:00 -6°C° 0.2 mm 3 mps 747 mmHg 97%
02:00 -4°C° 0.2 mm 3 mps 747 mmHg 97%
03:00 -1°C° 0.2 mm 3 mps 747 mmHg 98%
04:00 -1°C° 0.3 mm 3 mps 747 mmHg 99%
05:00 0°C° 0.3 mm 3 mps 747 mmHg 99%
06:00 0°C° 0.3 mm 3 mps 747 mmHg 99%
07:00 -1°C° 0.2 mm 4 mps 748 mmHg 99%
08:00 -1°C° 0.2 mm 4 mps 748 mmHg 99%
09:00 -1°C° 0.2 mm 4 mps 748 mmHg 99%
10:00 -1°C° 0.1 mm 4 mps 748 mmHg 99%
11:00 -1°C° 0.1 mm 4 mps 749 mmHg 99%
12:00 -1°C° 0.1 mm 4 mps 749 mmHg 99%
13:00 -1°C° 0 mm 4 mps 749 mmHg 99%
14:00 -1°C° 0 mm 4 mps 749 mmHg 99%
15:00 -1°C° 0 mm 4 mps 749 mmHg 99%
16:00 -1°C° 0.2 mm 4 mps 749 mmHg 99%
17:00 -1°C° 0.2 mm 4 mps 750 mmHg 99%
18:00 -1°C° 0.2 mm 4 mps 750 mmHg 99%
19:00 -1°C° 0.3 mm 4 mps 750 mmHg 99%
20:00 -1°C° 0.3 mm 4 mps 750 mmHg 99%
21:00 -1°C° 0.3 mm 4 mps 750 mmHg 99%
22:00 -1°C° 0.1 mm 4 mps 751 mmHg 99%
23:00 -1°C° 0.1 mm 4 mps 751 mmHg 98%

Tomorrow, 25 January, Monday

Time Temperature Precipitation Wind Pressure Humidity
00:00 -1°C° 0.1 mm 4 mps 751 mmHg 98%
01:00 -2°C° 0.1 mm 4 mps 751 mmHg 97%
02:00 -2°C° 0.1 mm 5 mps 751 mmHg 97%
03:00 -2°C° 0.1 mm 5 mps 751 mmHg 96%
04:00 -2°C° 0 mm 5 mps 752 mmHg 96%
05:00 -4°C° 0 mm 5 mps 752 mmHg 96%
06:00 -4°C° 0 mm 5 mps 752 mmHg 96%
07:00 -4°C° 0.2 mm 5 mps 752 mmHg 96%
08:00 -4°C° 0.2 mm 5 mps 753 mmHg 96%
09:00 -4°C° 0.2 mm 5 mps 753 mmHg 96%
10:00 -4°C° 0.1 mm 5 mps 753 mmHg 95%
11:00 -4°C° 0.1 mm 5 mps 753 mmHg 94%
12:00 -4°C° 0.1 mm 5 mps 753 mmHg 93%
13:00 -5°C° 0 mm 5 mps 753 mmHg 93%
14:00 -5°C° 0 mm 5 mps 753 mmHg 92%
15:00 -5°C° 0 mm 4 mps 753 mmHg 92%
16:00 -5°C° 0 mm 4 mps 754 mmHg 94%
17:00 -7°C° 0 mm 4 mps 754 mmHg 95%
18:00 -7°C° 0 mm 4 mps 754 mmHg 97%
19:00 -6°C° 0 mm 5 mps 754 mmHg 96%
20:00 -6°C° 0 mm 5 mps 754 mmHg 95%
21:00 -5°C° 0 mm 5 mps 754 mmHg 95%
22:00 -5°C° 0 mm 5 mps 754 mmHg 94%
23:00 -5°C° 0 mm 5 mps 754 mmHg 94%

Day after tomorrow, 26 January, Tuesday

Time Temperature Precipitation Wind Pressure Humidity
00:00 -4°C° 0 mm 4 mps 754 mmHg 93%
01:00 -4°C° 0 mm 4 mps 753 mmHg 93%
02:00 -4°C° 0 mm 4 mps 753 mmHg 93%
03:00 -4°C° 0 mm 4 mps 753 mmHg 93%
04:00 -4°C° 0 mm 4 mps 753 mmHg 93%
05:00 -4°C° 0 mm 4 mps 753 mmHg 93%
06:00 -4°C° 0 mm 4 mps 753 mmHg 94%
07:00 -4°C° 0 mm 4 mps 753 mmHg 94%
08:00 -4°C° 0 mm 4 mps 753 mmHg 94%
09:00 -4°C° 0 mm 4 mps 753 mmHg 94%
10:00 -4°C° 0 mm 4 mps 753 mmHg 93%
11:00 -4°C° 0 mm 4 mps 753 mmHg 92%
12:00 -5°C° 0 mm 5 mps 753 mmHg 91%
13:00 -5°C° 0 mm 5 mps 752 mmHg 92%
14:00 -4°C° 0 mm 4 mps 752 mmHg 92%
15:00 -4°C° 0 mm 4 mps 752 mmHg 92%
16:00 -4°C° 0 mm 4 mps 752 mmHg 93%
17:00 -4°C° 0 mm 4 mps 752 mmHg 93%
18:00 -5°C° 0 mm 4 mps 752 mmHg 93%
19:00 -5°C° 0 mm 4 mps 752 mmHg 93%
20:00 -7°C° 0 mm 4 mps 752 mmHg 93%
21:00 -7°C° 0 mm 4 mps 752 mmHg 94%
22:00 -7°C° 0 mm 4 mps 752 mmHg 94%
23:00 -7°C° 0 mm 5 mps 751 mmHg 94%

27 January, Wednesday

Time Temperature Precipitation Wind Pressure Humidity
00:00 -7°C° 0 mm 5 mps 751 mmHg 94%
01:00 -7°C° 0 mm 5 mps 751 mmHg 94%
02:00 -8°C° 0 mm 5 mps 751 mmHg 94%
03:00 -8°C° 0 mm 5 mps 751 mmHg 93%
04:00 -10°C° 0 mm 5 mps 750 mmHg 94%
05:00 -10°C° 0 mm 5 mps 750 mmHg 94%
06:00 -11°C° 0 mm 5 mps 750 mmHg 94%
07:00 -10°C° 0 mm 5 mps 750 mmHg 93%
08:00 -10°C° 0 mm 5 mps 750 mmHg 93%
09:00 -10°C° 0 mm 5 mps 750 mmHg 93%
10:00 -10°C° 0 mm 5 mps 750 mmHg 93%
11:00 -8°C° 0 mm 5 mps 750 mmHg 93%
12:00 -9°C° 0 mm 6 mps 750 mmHg 93%
13:00 -8°C° 0 mm 5 mps 750 mmHg 93%
14:00 -7°C° 0 mm 5 mps 750 mmHg 93%
15:00 -7°C° 0 mm 5 mps 750 mmHg 93%
16:00 -7°C° 0.2 mm 5 mps 750 mmHg 94%
17:00 -7°C° 0.2 mm 5 mps 750 mmHg 94%
18:00 -7°C° 0.2 mm 5 mps 750 mmHg 95%
19:00 -7°C° 0.1 mm 5 mps 749 mmHg 94%
20:00 -8°C° 0.1 mm 5 mps 749 mmHg 93%
21:00 -9°C° 0.1 mm 6 mps 749 mmHg 92%
22:00 -8°C° 0 mm 5 mps 749 mmHg 92%
23:00 -10°C° 0 mm 5 mps 749 mmHg 92%

28 January, Thursday

Time Temperature Precipitation Wind Pressure Humidity
00:00 -10°C° 0 mm 5 mps 749 mmHg 92%
01:00 -10°C° 0 mm 5 mps 749 mmHg 93%
02:00 -10°C° 0 mm 5 mps 748 mmHg 93%
03:00 -11°C° 0 mm 5 mps 748 mmHg 94%
04:00 -11°C° 0 mm 5 mps 748 mmHg 94%
05:00 -11°C° 0 mm 5 mps 748 mmHg 94%
06:00 -11°C° 0 mm 5 mps 747 mmHg 94%
07:00 -11°C° 0 mm 5 mps 747 mmHg 93%
08:00 -11°C° 0 mm 5 mps 747 mmHg 93%
09:00 -11°C° 0 mm 5 mps 747 mmHg 93%
10:00 -11°C° 0 mm 5 mps 747 mmHg 92%
11:00 -11°C° 0 mm 5 mps 746 mmHg 91%
12:00 -9°C° 0 mm 4 mps 746 mmHg 91%
13:00 -9°C° 0 mm 4 mps 746 mmHg 91%
14:00 -9°C° 0 mm 4 mps 745 mmHg 91%
15:00 -8°C° 0 mm 3 mps 745 mmHg 91%
16:00 -8°C° 0 mm 3 mps 745 mmHg 91%
17:00 -8°C° 0 mm 3 mps 744 mmHg 92%
18:00 -8°C° 0 mm 3 mps 744 mmHg 92%
19:00 -9°C° 0 mm 3 mps 744 mmHg 93%
20:00 -9°C° 0 mm 3 mps 744 mmHg 93%
21:00 -9°C° 0 mm 3 mps 743 mmHg 93%

29 January, Friday

Time Temperature Precipitation Wind Pressure Humidity
Show more